Time,TemperatureF,DewpointF,PressureIn,WindDirection,WindDirectionDegrees,WindSpeedMPH,WindSpeedGustMPH,Humidity,HourlyPrecipIn,Conditions,Clouds,dailyrainin,SoftwareType,DateUTC
2013-01-16 06:16:00,30.6,29.0,30.11,NNE,22,0.0,-999.0,95,-99.99,,,0.03,weatherlink.com 1.10,2013-01-16 11:16:00,
2013-01-16 06:21:00,30.6,29.0,30.10,NNE,22,0.0,-999.0,95,-99.99,,,0.03,weatherlink.com 1.10,2013-01-16 11:21:00,
2013-01-16 06:37:00,30.5,29.0,30.10,NNE,22,0.0,-999.0,95,-99.99,,,0.03,weatherlink.com 1.10,2013-01-16 11:37:00,
2013-01-16 06:52:00,30.5,29.0,30.09,NNE,22,0.0,-999.0,95,-99.99,,,0.03,weatherlink.com 1.10,2013-01-16 11:52:00,
2013-01-16 07:07:00,30.4,29.0,30.09,NNE,22,0.0,-999.0,95,-99.99,,,0.03,weatherlink.com 1.10,2013-01-16 12:07:00,
2013-01-16 07:22:00,30.5,29.0,30.09,NNE,22,0.0,-999.0,95,-99.99,,,0.03,weatherlink.com 1.10,2013-01-16 12:22:00,
2013-01-16 07:37:00,30.5,29.0,30.08,NNE,22,0.0,-999.0,95,-99.99,,,0.03,weatherlink.com 1.10,2013-01-16 12:37:00,
2013-01-16 07:52:00,30.5,29.0,30.09,NNE,22,0.0,-999.0,95,-99.99,,,0.03,weatherlink.com 1.10,2013-01-16 12:52:00,
2013-01-16 08:07:00,30.6,29.0,30.08,NNE,22,0.0,-999.0,95,-99.99,,,0.03,weatherlink.com 1.10,2013-01-16 13:07:00,
2013-01-16 08:22:00,30.8,30.0,30.07,NNE,22,0.0,-999.0,95,-99.99,,,0.03,weatherlink.com 1.10,2013-01-16 13:22:00,
2013-01-16 08:37:00,31.0,30.0,30.05,NNE,22,0.0,-999.0,96,-99.99,,,0.03,weatherlink.com 1.10,2013-01-16 13:37:00,
2013-01-16 08:52:00,31.1,30.0,30.02,NNE,22,1.0,-999.0,95,-99.99,,,0.03,weatherlink.com 1.10,2013-01-16 13:52:00,
2013-01-16 09:07:00,31.1,30.0,30.03,North,355,0.0,-999.0,95,-99.99,,,0.03,weatherlink.com 1.10,2013-01-16 14:07:00,
2013-01-16 09:23:00,31.2,30.0,30.01,NNE,15,0.0,-999.0,95,-99.99,,,0.03,weatherlink.com 1.10,2013-01-16 14:23:00,
2013-01-16 09:38:00,31.4,30.0,29.98,NE,51,0.0,-999.0,95,-99.99,,,0.03,weatherlink.com 1.10,2013-01-16 14:38:00,
2013-01-16 09:53:00,31.5,30.0,29.98,North,5,0.0,-999.0,95,-99.99,,,0.03,weatherlink.com 1.10,2013-01-16 14:53:00,
2013-01-16 10:08:00,31.6,30.0,30.00,NW,321,0.0,-999.0,95,-99.99,,,0.03,weatherlink.com 1.10,2013-01-16 15:08:00,
2013-01-16 10:23:00,31.7,31.0,29.98,North,360,0.0,-999.0,95,-99.99,,,0.03,weatherlink.com 1.10,2013-01-16 15:23:00,
2013-01-16 10:38:00,31.9,31.0,30.00,North,360,0.0,-999.0,95,-99.99,,,0.03,weatherlink.com 1.10,2013-01-16 15:38:00,
2013-01-16 10:53:00,31.9,31.0,30.00,NNW,340,2.0,-999.0,95,-99.99,,,0.03,weatherlink.com 1.10,2013-01-16 15:53:00,
2013-01-16 11:08:00,31.9,31.0,29.99,NNW,340,0.0,-999.0,95,-99.99,,,0.03,weatherlink.com 1.10,2013-01-16 16:08:00,
2013-01-16 11:23:00,32.0,31.0,29.98,NNW,340,0.0,-999.0,95,-99.99,,,0.03,weatherlink.com 1.10,2013-01-16 16:23:00,
2013-01-16 11:38:00,32.1,31.0,29.97,NNW,340,0.0,-999.0,95,-99.99,,,0.03,weatherlink.com 1.10,2013-01-16 16:38:00,
2013-01-16 11:53:00,32.3,31.0,29.97,NNW,340,0.0,-999.0,95,-99.99,,,0.00,weatherlink.com 1.10,2013-01-16 16:53:00,
2013-01-16 12:09:00,32.3,31.0,29.96,NNW,340,0.0,-999.0,95,-99.99,,,0.00,weatherlink.com 1.10,2013-01-16 17:09:00,
2013-01-16 12:24:00,32.4,31.0,29.93,NNW,340,0.0,-999.0,95,-99.99,,,0.00,weatherlink.com 1.10,2013-01-16 17:24:00,
2013-01-16 12:39:00,32.5,31.0,29.91,NNW,337,5.0,-999.0,95,-99.99,,,0.00,weatherlink.com 1.10,2013-01-16 17:39:00,
2013-01-16 12:54:00,32.5,32.0,29.91,ENE,75,0.0,-999.0,96,-99.99,,,0.00,weatherlink.com 1.10,2013-01-16 17:54:00,
2013-01-16 13:09:00,32.5,32.0,29.89,ENE,72,0.0,-999.0,96,-99.99,,,0.00,weatherlink.com 1.10,2013-01-16 18:09:00,
2013-01-16 13:24:00,32.5,31.0,29.81,SE,125,0.0,-999.0,95,-99.99,,,0.00,weatherlink.com 1.10,2013-01-16 18:24:00,
2013-01-16 13:39:00,32.5,32.0,29.86,NW,317,0.0,-999.0,96,-99.99,,,0.00,weatherlink.com 1.10,2013-01-16 18:39:00,
2013-01-16 13:54:00,32.6,32.0,29.90,NNW,333,2.0,-999.0,96,-99.99,,,0.00,weatherlink.com 1.10,2013-01-16 18:54:00,
2013-01-16 14:09:00,32.6,32.0,29.89,NW,325,0.0,-999.0,96,-99.99,,,0.00,weatherlink.com 1.10,2013-01-16 19:09:00,
2013-01-16 14:24:00,32.7,32.0,29.93,NNW,338,0.0,-999.0,96,-99.99,,,0.00,weatherlink.com 1.10,2013-01-16 19:24:00,
2013-01-16 14:39:00,32.8,32.0,29.91,NNW,338,0.0,-999.0,96,-99.99,,,0.00,weatherlink.com 1.10,2013-01-16 19:39:00,
2013-01-16 14:54:00,32.9,32.0,29.90,NNW,338,0.0,-999.0,96,-99.99,,,0.00,weatherlink.com 1.10,2013-01-16 19:54:00,
2013-01-16 15:10:00,32.8,32.0,29.89,NNW,338,2.0,-999.0,95,-99.99,,,0.00,weatherlink.com 1.10,2013-01-16 20:10:00,
2013-01-16 15:25:00,32.7,32.0,29.90,NNW,338,0.0,-999.0,95,-99.99,,,0.00,weatherlink.com 1.10,2013-01-16 20:25:00,
2013-01-16 15:40:00,32.6,32.0,29.91,NNW,338,0.0,-999.0,96,-99.99,,,0.00,weatherlink.com 1.10,2013-01-16 20:40:00,
2013-01-16 15:55:00,32.6,32.0,29.90,NNW,338,0.0,-999.0,96,-99.99,,,0.00,weatherlink.com 1.10,2013-01-16 20:55:00,
2013-01-16 16:10:00,32.6,32.0,29.90,NNW,338,0.0,-999.0,96,-99.99,,,0.00,weatherlink.com 1.10,2013-01-16 21:10:00,
2013-01-16 16:25:00,32.5,32.0,29.90,NNW,338,0.0,-999.0,96,-99.99,,,0.00,weatherlink.com 1.10,2013-01-16 21:25:00,
2013-01-16 16:40:00,32.5,32.0,29.90,NNW,338,0.0,-999.0,96,-99.99,,,0.00,weatherlink.com 1.10,2013-01-16 21:40:00,
2013-01-16 16:55:00,32.5,32.0,29.91,NNW,338,0.0,-999.0,96,-99.99,,,0.00,weatherlink.com 1.10,2013-01-16 21:55:00,
2013-01-16 17:10:00,32.5,32.0,29.90,NNW,338,0.0,-999.0,96,-99.99,,,0.00,weatherlink.com 1.10,2013-01-16 22:10:00,
2013-01-16 17:40:00,32.4,31.0,29.91,WSW,248,0.0,-999.0,96,-99.99,,,0.00,weatherlink.com 1.10,2013-01-16 22:40:00,
2013-01-16 17:55:00,32.4,31.0,29.91,SW,219,0.0,-999.0,96,-99.99,,,0.00,weatherlink.com 1.10,2013-01-16 22:55:00,
2013-01-16 18:10:00,32.4,31.0,29.91,SW,219,0.0,-999.0,96,-99.99,,,0.00,weatherlink.com 1.10,2013-01-16 23:10:00,
2013-01-16 18:25:00,32.4,31.0,29.90,SW,219,0.0,-999.0,96,-99.99,,,0.00,weatherlink.com 1.10,2013-01-16 23:25:00,
2013-01-16 18:41:00,32.4,31.0,29.90,SW,219,0.0,-999.0,96,-99.99,,,0.00,weatherlink.com 1.10,2013-01-16 23:41:00,
2013-01-16 18:56:00,32.5,32.0,29.91,SW,219,0.0,-999.0,96,-99.99,,,0.00,weatherlink.com 1.10,2013-01-16 23:56:00,
2013-01-16 19:11:00,32.5,32.0,29.91,SW,219,0.0,-999.0,96,-99.99,,,0.00,weatherlink.com 1.10,2013-01-17 00:11:00,
2013-01-16 19:26:00,32.6,32.0,29.91,SW,219,0.0,-999.0,96,-99.99,,,0.00,weatherlink.com 1.10,2013-01-17 00:26:00,
2013-01-16 19:41:00,32.6,32.0,29.91,SW,219,0.0,-999.0,96,-99.99,,,0.00,weatherlink.com 1.10,2013-01-17 00:41:00,
2013-01-16 19:56:00,32.7,32.0,29.91,SW,219,0.0,-999.0,96,-99.99,,,0.00,weatherlink.com 1.10,2013-01-17 00:56:00,
2013-01-16 20:11:00,32.9,32.0,29.92,SW,219,0.0,-999.0,96,-99.99,,,0.00,weatherlink.com 1.10,2013-01-17 01:11:00,
2013-01-16 20:26:00,32.8,32.0,29.91,SW,219,0.0,-999.0,96,-99.99,,,0.00,weatherlink.com 1.10,2013-01-17 01:26:00,
2013-01-16 20:41:00,32.7,32.0,29.91,SW,219,0.0,-999.0,96,-99.99,,,0.00,weatherlink.com 1.10,2013-01-17 01:41:00,
2013-01-16 20:56:00,32.7,32.0,29.92,SW,219,0.0,-999.0,96,-99.99,,,0.00,weatherlink.com 1.10,2013-01-17 01:56:00,
2013-01-16 21:11:00,32.6,32.0,29.92,SW,219,0.0,-999.0,96,-99.99,,,0.00,weatherlink.com 1.10,2013-01-17 02:11:00,
2013-01-16 21:26:00,32.5,32.0,29.92,SW,219,0.0,-999.0,96,-99.99,,,0.00,weatherlink.com 1.10,2013-01-17 02:26:00,
2013-01-16 21:41:00,32.4,31.0,29.92,SW,219,0.0,-999.0,96,-99.99,,,0.00,weatherlink.com 1.10,2013-01-17 02:41:00,
2013-01-16 21:57:00,32.4,31.0,29.92,SW,219,0.0,-999.0,96,-99.99,,,0.00,weatherlink.com 1.10,2013-01-17 02:57:00,
2013-01-16 22:12:00,32.4,31.0,29.91,SW,219,0.0,-999.0,96,-99.99,,,0.00,weatherlink.com 1.10,2013-01-17 03:12:00,